TITAN 3C TRANSTAGE DEB, 1671

Orbit data source: Space-Track

TITAN 3C TRANSTAGE DEB, 1671 is space debris in LEO originally from a launch on Fri, 15 Oct 1965 UTC launched from the Air Force Eastern Test Range (AFETR). Debris objects in space refer to the collection of defunct objects orbiting the Earth. Examples of debris include non-operational satellites, rocket bodies, and fragments generated from explosions, collisions, or faulty payload assembly.

Loading next visibility...
Identifier
1671, 1965-082AJ
Orbit
LEO
Last TLE update
19 hours ago
Origin
Manufacturer
Unknown
Mission
Spacecraft
Bus & Motor
Unknown
Mass
Unknown
Launch date (UTC)
1965-10-15 (60 years ago)
Launch vehicle
Unknown
Launch site
Air Force Eastern Test Range (AFETR)
Object type
Payload
Rocket body
Debris
Shape & HBR
Unknown
Radar Cross Section
Medium (>0.1 m² and <1 m²)

Expand to show TLE details & history

TLE from 19 hours ago
0 TITAN 3C TRANSTAGE DEB
1 01671U 65082AJ  25128.43641389  .00000645  00000-0  14060-3 0  9991
2 01671  32.1612 253.9963 0052713 231.3720 128.2196 14.53588214127454
Epoch: 2025-05-08T10:28Z
Definitive object data (Epoch: 2025-05-08T10:28:26.16Z)
Latitude
-0°
Longitude
-129.61964°
Altitude
735.856 km
Speed
7.477 km/s
True Right ascension
16h 55m 59s
True Declination
0° 00' 00"
Sunlit
Object was in full shadow at TLE epoch
Visualization TLE readout
Latitude
11.01273°
Longitude
27.86925°
Altitude
704.744 km
Speed
7.51 km/s
Apparent Right ascension
02h 37m 47s
Apparent Declination
-13° 21' 27"
Sunlit
Object is in daylight
Visualization observer readout
Local Sidereal Time
13:28:55
Azimuth
325.506° NNW
Elevation
-59.433°
Doppler factor
1
Orbital elements
Apogee altitude
754.933 km
Perigee altitude
680.126 km
Semi-major axis
7,095.667 km
Eccentricity
0.0052713
Inclination
32.1612°
RAAN
253.9963°
Arg. of periapsis
231.372°
True anomaly
128.69223°
Mean anomaly
128.2196°
Eccentric anomaly
128.45611°
Mean motion
3.63123 °/min
BSTAR
0.0001406
Orbital period
99.14 mins
Loading maneuver chart data...
Loading SW <> Apogee altitude chart data...

TITAN 3C TRANSTAGE DEB Visibility forecast

Observer location: undefined°, undefined°

Span
Click to sort rows by Start time (UTC) header in descending order
Start Az.
Max El. time (UTC)
Max El. Az.
Max El.
End time (UTC)
End Az.
5 mins2025-05-09 11:25:16.001Z187.089° SSW2025-05-09 11:27:16.001Z162.683° S15.929°2025-05-09 11:30:16.001Z124.906° SE
7 mins2025-05-09 13:09:16.001Z218.283° SW2025-05-09 13:12:16.001Z166.5° S27.606°2025-05-09 13:16:16.001Z111.82° ESE
8 mins2025-05-09 14:53:16.001Z240.728° WSW2025-05-09 14:56:16.001Z194.866° SSW28.997°2025-05-09 15:01:16.001Z122.382° SE
6 mins2025-05-09 16:38:16.001Z238.253° WSW2025-05-09 16:41:16.001Z197.069° SSW19.362°2025-05-09 16:44:16.001Z158.084° S
|